Station BHBM3 - 8443970 - Boston, MA Image indicating link to RSS feed of recent meteorological observations for station BHBM3


Conditions at BHBM3 as of
(8:18 pm EDT on 05/17/2024)
0018 GMT on 05/18/2024:
     

Click on the graph icon in the table below to see a time series plot of the last five days of that observation.

5-day plot - Atmospheric Pressure Atmospheric Pressure (PRES):30.00 in
5-day plot - Air Temperature Air Temperature (ATMP): 58.5 °F
NOS Water Level Observation Network Water Level
Previous observations
TIME
(EDT)
5-day plot - Wind Direction
WDIR
 
5-day plot - Wind Speed
WSPD
kts
5-day plot - Wind Gust
GST
kts
5-day plot - Wave Height
WVHT
ft
5-day plot - Dominant Wave Period
DPD
sec
5-day plot - Average Wave Period
APD
sec
5-day plot - Mean Wave Direction
MWD
 
5-day plot - Atmospheric Pressure
PRES
in
5-day plot - Pressure Tendency
PTDY
in
5-day plot - Air Temperature
ATMP
°F
5-day plot - Water Temperature
WTMP
°F
5-day plot - Dew Point
DEWP
°F
5-day plot - Salinity
SAL
psu
5-day plot - Visibility
VIS
nmi
5-day plot - Tide (above MLLW)
TIDE
ft
2024-05-17 08:12 pm-------30.00- 58.5-----
2024-05-17 08:06 pm-------30.00- 58.3-----
2024-05-17 08:00 pm-------30.00+0.00 58.3-----
2024-05-17 07:54 pm-------30.00- 58.6-----
2024-05-17 07:48 pm-------30.00- 58.8-----
2024-05-17 07:42 pm-------30.01- 59.0-----
2024-05-17 07:36 pm-------30.01- 59.2-----
2024-05-17 07:30 pm-------30.01- 59.5-----
2024-05-17 07:24 pm-------30.01- 59.5-----
2024-05-17 07:18 pm-------30.01- 60.1-----
2024-05-17 07:12 pm-------30.01- 60.1-----
2024-05-17 07:06 pm-------30.01- 60.1-----
2024-05-17 07:00 pm-------30.01+0.01 59.7-----
2024-05-17 06:54 pm-------30.01- 59.4-----
2024-05-17 06:48 pm-------30.00- 59.5-----
2024-05-17 06:42 pm-------30.00- 59.7-----
2024-05-17 06:36 pm-------30.00- 59.7-----
2024-05-17 06:30 pm-------30.00- 59.7-----
2024-05-17 06:24 pm-------30.00- 60.3-----
2024-05-17 06:18 pm-------30.00-------
2024-05-17 06:12 pm-------30.00-------
2024-05-17 06:06 pm-------30.00-------
2024-05-17 06:00 pm-------30.00+0.00 60.4-----
2024-05-17 05:54 pm-------30.00- 60.6-----
2024-05-17 05:48 pm-------30.00- 60.3-----
2024-05-17 05:42 pm-------29.99- 60.3-----
2024-05-17 05:36 pm-------30.00- 60.4-----
2024-05-17 05:30 pm-------30.00- 60.4-----
2024-05-17 05:24 pm-------30.00- 60.4-----
2024-05-17 05:18 pm-------30.00- 60.8-----
2024-05-17 05:12 pm-------30.00- 60.8-----
2024-05-17 05:06 pm-------30.00- 60.4-----
2024-05-17 05:00 pm-------30.00+0.02 59.9-----
2024-05-17 04:54 pm-------30.00- 59.9-----
2024-05-17 04:48 pm-------30.00- 59.9-----
2024-05-17 04:42 pm-------30.00- 59.7-----
2024-05-17 04:36 pm-------30.00- 59.5-----
2024-05-17 04:30 pm-------29.99- 59.5-----
2024-05-17 04:24 pm-------29.99- 59.7-----
2024-05-17 04:18 pm-------29.99- 59.5-----
2024-05-17 04:12 pm-------30.00- 59.9-----
2024-05-17 04:06 pm-------29.99- 59.2-----
2024-05-17 04:00 pm-------30.00+0.01 59.0-----
2024-05-17 03:54 pm-------30.00- 59.0-----
2024-05-17 03:48 pm-------30.00- 59.4-----
2024-05-17 03:42 pm-------30.00- 59.5-----
2024-05-17 03:36 pm-------30.00- 59.9-----
2024-05-17 03:30 pm-------29.99- 59.7-----
2024-05-17 03:24 pm-------30.00- 59.5-----
2024-05-17 03:18 pm-------29.99- 59.4-----
2024-05-17 03:12 pm-------29.99- 59.4-----
2024-05-17 03:06 pm-------29.99- 60.3-----
2024-05-17 03:00 pm-------29.99+0.01 61.0-----
2024-05-17 02:54 pm-------29.99- 61.3-----
2024-05-17 02:48 pm-------29.99- 62.2-----
2024-05-17 02:42 pm-------29.99- 62.4-----
2024-05-17 02:36 pm-------29.98- 61.3-----
2024-05-17 02:30 pm-------29.98- 61.3-----
2024-05-17 02:24 pm-------29.98- 61.5-----
2024-05-17 02:18 pm-------29.98- 61.5-----
2024-05-17 02:12 pm-------29.99- 61.9-----
2024-05-17 02:06 pm-------29.98- 62.2-----
2024-05-17 02:00 pm-------29.98+0.00 62.4-----
2024-05-17 01:54 pm-------29.98- 62.8-----
2024-05-17 01:48 pm-------29.98-------
2024-05-17 01:42 pm-------29.98-------
2024-05-17 01:36 pm-------29.98-------
2024-05-17 01:30 pm-------29.98- 62.6-----
2024-05-17 01:24 pm-------29.98- 63.5-----
2024-05-17 01:18 pm-------29.98- 63.0-----
2024-05-17 01:12 pm-------29.99- 63.0-----
2024-05-17 01:06 pm-------29.99- 63.0-----
2024-05-17 01:00 pm-------29.99+0.00 64.4-----
2024-05-17 12:54 pm-------29.98- 63.5-----
2024-05-17 12:48 pm-------29.98- 63.5-----
2024-05-17 12:42 pm-------29.98- 62.8-----
2024-05-17 12:36 pm-------29.98- 63.1-----
2024-05-17 12:30 pm-------29.98- 62.8-----
2024-05-17 12:24 pm-------29.98- 62.8-----
2024-05-17 12:18 pm-------29.98- 62.6-----
2024-05-17 12:12 pm-------29.98- 62.6-----
2024-05-17 12:06 pm-------29.98- 62.2-----
2024-05-17 12:00 pm-------29.98-0.02 62.4-----
2024-05-17 11:54 am-------29.98- 63.1-----
2024-05-17 11:48 am-------29.98- 63.7-----
2024-05-17 11:42 am-------29.98- 63.7-----
2024-05-17 11:36 am-------29.98- 63.9-----
2024-05-17 11:30 am-------29.98- 64.0-----
2024-05-17 11:24 am-------29.98- 64.4-----
2024-05-17 11:18 am-------29.98- 64.9-----
2024-05-17 11:12 am-------29.98- 64.2-----
2024-05-17 11:06 am-------29.97- 64.6-----
2024-05-17 11:00 am-------29.97-0.04 65.1-----
2024-05-17 10:54 am-------29.98- 64.9-----
2024-05-17 10:48 am-------29.98- 64.9-----
2024-05-17 10:42 am-------29.98- 64.9-----
2024-05-17 10:36 am-------29.98- 65.1-----
2024-05-17 10:30 am-------29.98- 64.8-----
2024-05-17 10:24 am-------29.98- 64.8-----
2024-05-17 10:18 am-------29.98- 63.7-----
2024-05-17 10:12 am-------29.98- 63.5-----
2024-05-17 10:06 am-------29.99- 63.1-----
2024-05-17 10:00 am-------29.99+0.00 63.1-----
2024-05-17 09:54 am-------30.00- 63.0-----
2024-05-17 09:48 am-------30.00- 63.3-----
2024-05-17 09:42 am-------30.00- 62.8-----
2024-05-17 09:36 am-------30.01- 62.6-----
2024-05-17 09:30 am-------30.01- 62.6-----
2024-05-17 09:24 am-------30.00- 61.9-----
2024-05-17 09:18 am-------30.00- 61.9-----
2024-05-17 09:12 am-------30.00- 61.2-----
2024-05-17 09:06 am-------30.01- 60.4-----
2024-05-17 09:00 am-------30.00+0.05 60.1-----
2024-05-17 08:54 am-------30.00- 59.5-----
2024-05-17 08:48 am-------30.01- 59.2-----
2024-05-17 08:42 am-------30.01- 58.5-----
2024-05-17 08:36 am-------30.01- 58.1-----
2024-05-17 08:30 am-------30.01- 57.6-----
2024-05-17 08:24 am-------30.01- 57.2-----
2024-05-17 08:18 am-------30.01- 57.0-----
2024-05-17 08:12 am-------30.01- 57.0-----
2024-05-17 08:06 am-------30.01- 56.8-----
2024-05-17 08:00 am-------30.01+0.09 56.7-----
2024-05-17 07:54 am-------30.01- 56.8-----
2024-05-17 07:48 am-------30.01- 56.5-----
2024-05-17 07:42 am-------30.01- 56.3-----
2024-05-17 07:36 am-------30.01- 56.1-----
2024-05-17 07:30 am-------30.01- 56.1-----
2024-05-17 07:24 am-------30.01- 55.8-----
2024-05-17 07:18 am-------30.01- 55.6-----
2024-05-17 07:12 am-------30.00- 55.6-----
2024-05-17 07:06 am-------30.00- 55.4-----
2024-05-17 07:00 am-------30.00+0.08 55.0-----
2024-05-17 06:54 am-------29.99- 54.9-----
2024-05-17 06:48 am-------29.98- 54.9-----
2024-05-17 06:42 am-------29.98- 54.7-----
2024-05-17 06:36 am-------29.98- 54.7-----
2024-05-17 06:30 am-------29.98- 54.3-----
2024-05-17 06:24 am-------29.97- 54.3-----
2024-05-17 06:18 am-------29.97- 54.7-----
2024-05-17 06:12 am-------29.97- 54.5-----
2024-05-17 06:06 am-------29.96- 54.5-----
2024-05-17 06:00 am-------29.95+0.04 54.5-----
2024-05-17 05:54 am-------29.94- 54.3-----
2024-05-17 05:48 am-------29.94- 54.1-----
2024-05-17 05:42 am-------29.93- 54.0-----
2024-05-17 05:36 am-------29.93- 53.8-----
2024-05-17 05:30 am-------29.93- 53.8-----
2024-05-17 05:24 am-------29.93- 53.8-----
2024-05-17 05:18 am-------29.93- 53.6-----
2024-05-17 05:12 am-------29.93- 53.4-----
2024-05-17 05:06 am-------29.93- 53.4-----
2024-05-17 05:00 am-------29.93- 53.4-----
2024-05-17 04:54 am-------29.92- 53.4-----
2024-05-17 04:48 am-------29.92- 53.2-----
2024-05-17 04:42 am-------29.92- 53.2-----
2024-05-17 04:36 am-------29.92- 53.1-----
2024-05-17 04:30 am-------29.92- 53.2-----
2024-05-17 04:24 am-------29.92- 53.2-----
2024-05-17 04:18 am-------29.92- 53.2-----
2024-05-17 04:12 am-------29.92- 53.2-----
2024-05-17 04:06 am-------29.92- 53.2-----
2024-05-17 04:00 am-------29.92+0.00 53.2-----
2024-05-17 03:54 am-------29.92- 53.2-----
2024-05-17 03:48 am-------29.91- 53.2-----
2024-05-17 03:42 am-------29.91- 53.2-----
2024-05-17 03:36 am-------29.91- 53.2-----
2024-05-17 03:30 am-------29.91- 53.2-----
2024-05-17 03:24 am-------29.91- 53.2-----
2024-05-17 03:18 am-------29.91- 53.2-----
2024-05-17 03:12 am-------29.91- 53.4-----
2024-05-17 03:06 am-------29.91- 53.4-----
2024-05-17 03:00 am-------29.91-0.03 53.4-----
2024-05-17 02:54 am-------29.91- 53.4-----
2024-05-17 02:48 am-------29.91- 53.6-----
2024-05-17 02:42 am-------29.91- 53.6-----
2024-05-17 02:36 am-------29.91- 53.6-----
2024-05-17 02:30 am-------29.91- 53.8-----
2024-05-17 02:24 am-------29.91- 54.0-----
2024-05-17 02:18 am-------29.91- 54.1-----
2024-05-17 02:12 am-------29.91- 54.5-----
2024-05-17 02:06 am-------29.91- 54.7-----
2024-05-17 02:00 am--------- 55.2-----
2024-05-17 01:54 am--------- 55.2-----
2024-05-17 01:48 am-------29.91- 55.2-----
2024-05-17 01:42 am-------29.91- 54.9-----
2024-05-17 01:36 am-------29.91- 54.7-----
2024-05-17 01:30 am-------29.92- 54.5-----
2024-05-17 01:24 am-------29.92- 54.3-----
2024-05-17 01:18 am-------29.92- 54.3-----
2024-05-17 01:12 am-------29.92- 54.3-----
2024-05-17 01:06 am-------29.92- 54.5-----
2024-05-17 01:00 am-------29.92+0.00 54.5-----
2024-05-17 12:54 am-------29.93- 54.5-----
2024-05-17 12:48 am-------29.93- 54.7-----
2024-05-17 12:42 am-------29.93- 54.9-----
2024-05-17 12:36 am-------29.93- 55.0-----
2024-05-17 12:30 am-------29.93- 55.0-----
2024-05-17 12:24 am-------29.94- 55.0-----
2024-05-17 12:18 am-------29.94- 55.2-----
2024-05-17 12:12 am-------29.94- 55.2-----
2024-05-17 12:06 am-------29.93- 55.4-----
2024-05-17 12:00 am-------29.94+0.02 55.6-----
2024-05-16 11:54 pm-------29.94- 55.8-----
2024-05-16 11:48 pm-------29.93- 55.9-----
2024-05-16 11:42 pm-------29.93- 55.9-----
2024-05-16 11:36 pm-------29.93- 56.1-----
2024-05-16 11:30 pm-------29.93- 56.1-----
2024-05-16 11:24 pm-------29.93- 56.3-----
2024-05-16 11:18 pm-------29.93- 56.3-----
2024-05-16 11:12 pm-------29.94- 56.5-----
2024-05-16 11:06 pm-------29.94- 56.3-----
2024-05-16 11:00 pm-------29.94+0.03 56.3-----
2024-05-16 10:54 pm-------29.94- 56.3-----
2024-05-16 10:48 pm-------29.93- 56.1-----
2024-05-16 10:42 pm-------29.93- 56.1-----
2024-05-16 10:36 pm-------29.93- 56.3-----
2024-05-16 10:30 pm-------29.93- 56.3-----
2024-05-16 10:24 pm-------29.93- 56.5-----
2024-05-16 10:18 pm-------29.93- 56.7-----
2024-05-16 10:12 pm-------29.93- 56.7-----
2024-05-16 10:06 pm-------29.93- 56.8-----
2024-05-16 10:00 pm-------29.93+0.03 57.0-----
2024-05-16 09:54 pm-------29.93- 57.2-----
2024-05-16 09:48 pm-------29.93- 57.4-----
2024-05-16 09:42 pm-------29.93- 57.6-----
2024-05-16 09:36 pm-------29.93- 57.6-----
2024-05-16 09:30 pm-------29.93- 57.7-----
2024-05-16 09:24 pm-------29.93- 57.9-----
2024-05-16 09:18 pm-------29.92- 58.3-----
2024-05-16 09:12 pm-------29.92- 58.5-----
2024-05-16 09:06 pm-------29.92- 58.8-----
2024-05-16 09:00 pm-------29.92+0.04 58.8-----
2024-05-16 08:54 pm-------29.92- 58.8-----
2024-05-16 08:48 pm-------29.92- 58.6-----
2024-05-16 08:42 pm-------29.91- 58.6-----
2024-05-16 08:36 pm-------29.91- 58.6-----
2024-05-16 08:30 pm-------29.92- 58.6-----
2024-05-16 08:24 pm-------29.92- 58.6-----
2024-05-16 08:18 pm-------29.92- 58.5-----
2024-05-16 08:12 pm-------29.91- 58.3-----
2024-05-16 08:06 pm-------29.91- 57.9-----
2024-05-16 08:00 pm-------29.91+0.04 57.6-----
2024-05-16 07:54 pm-------29.91- 57.2-----